Home > Weather > Santa Barbara > Past weeks

Flag for U.S.A. Weather for the Past 2 Weeks in Santa Barbara, California, U.S.A.

Now
73 °F

Sunny.


Feels Like: 77 °F
Forecast: 48 / 76 °F
Wind: 6 mph from Southwest

Location: Santa Barbara Municipal Airport

Current Time: Feb 10, 2016 at 5:00:11 PM

Latest Report: Feb 10, 2016 at 3:53 PM


Visibility: 10 mi

Pressure: 30.07 "Hg

Humidity: 51%

Dew point: 54 °F

Location of Santa BarbaraLocation

Historic Weather in Santa Barbara — Graph

°F

Santa Barbara Temperature Yesterday

Maximum temperature yesterday: 85 °F (at 3:53 PM)
Minimum temperature yesterday: 46 °F (at 3:53 AM)
Average temperature yesterday: 63 °F

High & Low Weather Summary for the Past Weeks

 TemperatureHumidityPressure
High85 °F (Feb 9, 3:53 PM)96% (Jan 31, 6:55 AM)30.38 "Hg (Jan 31, 6:55 AM)
Low35 °F (Feb 2, 5:53 AM)13% (Feb 9, 3:53 PM)29.60 "Hg (Jan 31, 11:53 AM)
Average56 °F58%30.14 "Hg
* Reported Jan 26 2:53 PM — Feb 10 2:53 PM, Santa Barbara, Weather by CustomWeather, © 2016

Note: Actual official high and low records may vary slightly from our data, if they occured in-between our weather recording intervals... More about our weather records

Advertising

Santa Barbara Weather History for the Previous 24 Hours

 ConditionsComfort  
Time TempWeatherWind HumidityBarometerVisibility
2:53 PM
Wed, Feb 10
77 °FSunny.5 mph28%30.08 "Hg10 mi
1:53 PM78 °FSunny.7 mph20%30.09 "Hg10 mi
12:53 PM75 °FSunny.6 mph40%30.10 "Hg10 mi
11:53 AM74 °FSunny.3 mph38%30.13 "Hg10 mi
10:53 AM75 °FSunny.3 mph27%30.14 "Hg10 mi
9:53 AM74 °FSunny.5 mph33%30.15 "Hg10 mi
8:53 AM64 °FSunny.No wind47%30.15 "Hg10 mi
7:53 AM51 °FSunny.No wind74%30.14 "Hg10 mi
6:53 AM48 °FSunny.No wind71%30.12 "Hg10 mi
5:53 AM46 °FClear.No wind77%30.10 "Hg10 mi
4:53 AM50 °FClear.No wind68%30.10 "Hg10 mi
3:53 AM48 °FClear.5 mph74%30.10 "Hg10 mi
2:53 AM48 °FClear.No wind77%30.11 "Hg10 mi
1:53 AM50 °FClear.No wind71%30.12 "Hg10 mi
12:53 AM50 °FClear.No wind83%30.12 "Hg10 mi
11:53 PM
Tue, Feb 9
50 °FClear.No wind83%30.12 "Hg10 mi
10:53 PM54 °FClear.No wind83%30.12 "Hg10 mi
9:53 PM53 °FClear.No wind61%30.11 "Hg10 mi
8:53 PM57 °FClear.No wind53%30.11 "Hg10 mi
7:53 PM59 °FClear.6 mph51%30.11 "Hg10 mi
6:53 PM67 °FClear.3 mph39%30.10 "Hg10 mi
5:53 PM68 °FClear.12 mph38%30.09 "Hg10 mi
Weather by CustomWeather, © 2016

See weather overviewHow to use our weather pages